Tracking 29892 objects as of 21-Nov-2024
HD Live streaming from Space Station
objects crossing your sky now

COSMOS 397 DEB

Track COSMOS 397 DEB now!
10-day predictions


NORAD ID: 5720
Int'l Code: 1971-015CB
Perigee: 804.6 km
Apogee: 953.9 km
Inclination: 66.7 °
Period: 102.4 minutes
Semi major axis: 7250 km
RCS: 0.0156 m2 (small)
Launch date: February 25, 1971
Source: Commonwealth of Independent States (former USSR) (CIS)
Launch site: TYURATAM MISSILE AND SPACE COMPLEX (TTMTR)

Note: This is SATELLITE DEBRIS
Your satellite tracking list
Your tracking list is empty




NASA's NSSDC Master Catalog

Two Line Element Set (TLE):
1 05720U 71015CB  24325.22641715  .00000452  00000-0  30759-3 0  9990
2 05720  66.7272 258.5331 0102908   5.8111 354.4142 14.06283669680720
Source of the keplerian elements: AFSPC